Weather in Oleksiievo-Druzhkivka

Ukraine / Donetsk Region     48°34′44″N   37°36′42″E
temp.,
°C
wind,
m/s
gust,
m/s
humid.,
%
clouds,
%
prec.,
mm/h
press.,
hPa
HPBL,
m
23 may, mon
mon2300:00+10wnw5991100 0.1 1000625
03:00+10nw61090100 0.1 1002679
06:00+8n410915 0.0 1004378
09:00+12nne576218 0.0 10051280
12:00+14n4552100 0.1 10061577
15:00+15nw454676 0.1 10061784
18:00+15n575089 0.0 1006790
21:00+10ne226089 0.0 100810
24 may, tue
tue2400:00+8nne116060 0.0 101010
03:00+7ese116453 0.0 101010
06:00+10se116398 0.0 101154
09:00+12nnw236397 0.1 1012576
12:00+16nnw444254 0.1 10112283
15:00+16nnw543997 0.1 10122258
18:00+15nw454951 0.0 10121843
21:00+10wnw226621 0.0 101412
25 may, wed
wed2500:00+8w347726 0.0 101553
03:00+7wnw34805 0.0 101656
06:00+8w26825 0.0 1017153
09:00+15wnw57605 0.0 1017754
12:00+18nw675197 0.3 10171878
15:00+17nnw475139 0.3 10181347
18:00+15nnw6964100 0.1 1019517
21:00+12wsw227088 0.2 101919
26 may, thu
thu2600:00+11wsw33775 0.0 102026
03:00+10wsw337916 0.0 102034
06:00+11sw36776 0.0 1020131
09:00+18sw565464 0.0 1019631
12:00+21sw7846100 0.0 10182219
15:00+19wsw91153100 0.0 10171694
18:00+12sw51389100 1.0 1017630
21:00+13sw61483100 1.0 1017615
27 may, fri
fri2700:00+11sw411914 0.0 1016258
03:00+10sw499547 0.0 1016164
06:00+12wsw5129191 0.0 1015315
09:00+18w7106554 0.0 1015944
12:00+22w9105069 0.0 10142188
15:00+20wnw61057100 0.0 10141289
18:00+20nw59610 0.0 10151243
21:00+14wsw117916 0.0 101510